TimeCEST,TemperatureF,Dew PointF,Humidity,Sea Level PressureIn,VisibilityMPH,Wind Direction,Wind SpeedMPH,Gust SpeedMPH,PrecipitationIn,Events,Conditions,WindDirDegrees,DateUTC
12:55 AM,35.6,30.2,81,30.51,6.2,SW,3.5,-,N/A,,Scattered Clouds,230,2013-07-09 22:55:00
1:55 AM,35.6,30.2,81,30.48,6.2,SE,3.5,-,N/A,,Scattered Clouds,140,2013-07-09 23:55:00
2:00 AM,36,30,71,,6,SE,3.5,,,,Partly Cloudy,140,2013-07-10 00:00:00
2:55 AM,35.6,30.2,81,30.48,6.2,ENE,4.6,-,N/A,,Partly Cloudy,70,2013-07-10 00:55:00
3:55 AM,35.6,28.4,75,30.45,6.2,South,2.3,-,N/A,,Partly Cloudy,180,2013-07-10 01:55:00
4:55 AM,35.6,30.2,81,30.45,6.2,NNE,3.5,-,N/A,,Partly Cloudy,20,2013-07-10 02:55:00
5:00 AM,35,29,72,,19,NNE,3.5,,,,Scattered Clouds,20,2013-07-10 03:00:00
5:55 AM,33.8,28.4,81,30.45,6.2,ENE,8.1,-,N/A,,Partly Cloudy,70,2013-07-10 03:55:00
6:55 AM,33.8,28.4,81,30.45,6.2,ENE,11.5,-,N/A,,Partly Cloudy,60,2013-07-10 04:55:00
7:55 AM,33.8,28.4,81,30.45,-9999.0,ENE,12.7,-,N/A,,Clear,60,2013-07-10 05:55:00
8:00 AM,34,28,69,,12,ENE,12.7,,,,Clear,60,2013-07-10 06:00:00
8:55 AM,35.6,28.4,75,30.45,6.2,ENE,4.6,-,N/A,,Unknown,70,2013-07-10 06:55:00
9:55 AM,41.0,26.6,57,30.45,2.5,NNE,2.3,-,N/A,,Mist,30,2013-07-10 07:55:00
10:55 AM,41.0,26.6,57,30.45,2.5,NE,1.2,-,N/A,,Mist,50,2013-07-10 08:55:00
11:00 AM,42,27,43,,2,NE,1.2,,,,Mist,50,2013-07-10 09:00:00
11:55 AM,42.8,26.6,53,30.45,2.5,WSW,2.3,-,N/A,,Scattered Clouds,250,2013-07-10 09:55:00
12:55 PM,42.8,26.6,53,30.45,2.5,NNE,5.8,-,N/A,,Scattered Clouds,30,2013-07-10 10:55:00
1:55 PM,39.2,30.2,70,30.45,2.5,NE,5.8,-,N/A,,Scattered Clouds,40,2013-07-10 11:55:00
2:00 PM,40,31,59,,2,NE,5.8,,,,Mist,40,2013-07-10 12:00:00
2:55 PM,37.4,33.8,87,30.42,2.5,NE,12.7,-,N/A,,Scattered Clouds,50,2013-07-10 12:55:00
3:55 PM,37.4,33.8,87,30.42,1.6,NE,8.1,-,N/A,,Partly Cloudy,50,2013-07-10 13:55:00
4:16 PM,37.4,35.6,93,30.42,0.3,NE,10.4,-,N/A,Fog-Thunderstorm,Unknown,50,2013-07-10 14:16:00
4:36 PM,35.6,35.6,100,30.42,0.1,NE,12.7,-,N/A,Fog-Hail-Thunderstorm,Light Thunderstorms with Hail,50,2013-07-10 14:36:00
4:55 PM,35.6,33.8,93,30.42,0.0,NE,16.1,-,N/A,Fog-Hail-Thunderstorm,Light Thunderstorms with Hail,50,2013-07-10 14:55:00
5:00 PM,35,34,96,,0,NE,16.1,,,Hail-Thunderstorm,Thunderstorms with Hail,50,2013-07-10 15:00:00
5:55 PM,33.8,32.0,93,30.39,0.0,ENE,15.0,-,N/A,Fog-Snow-Thunderstorm,Light Thunderstorms and Snow,60,2013-07-10 15:55:00
6:55 PM,33.8,30.2,87,30.39,3.7,NE,10.4,-,N/A,,Scattered Clouds,50,2013-07-10 16:55:00
7:00 PM,35,30,74,,4,NE,10.4,,,Thunderstorm,Light Thunderstorm,50,2013-07-10 17:00:00
7:55 PM,33.8,30.2,87,30.39,6.2,ENE,12.7,-,N/A,,Mostly Cloudy,70,2013-07-10 17:55:00
8:00 PM,34,30,81,,3,ENE,12.7,,,,Mist,70,2013-07-10 18:00:00
8:55 PM,35.6,32.0,87,30.39,6.2,North,6.9,-,N/A,,Scattered Clouds,10,2013-07-10 18:55:00
9:00 PM,35,32,83,,16,North,6.9,,,,Partly Cloudy,10,2013-07-10 19:00:00
9:55 PM,33.8,33.8,100,30.42,6.2,ENE,12.7,-,N/A,,Scattered Clouds,60,2013-07-10 19:55:00
10:00 PM,34,33,94,,2,ENE,12.7,,,,Mist,60,2013-07-10 20:00:00
10:55 PM,33.8,33.8,100,30.42,6.2,ENE,11.5,-,N/A,,Scattered Clouds,70,2013-07-10 20:55:00
11:00 PM,34,33,94,,2,ENE,11.5,,,,Mist,70,2013-07-10 21:00:00
11:55 PM,33.8,33.8,100,30.39,0.5,ENE,4.6,-,N/A,Fog-Rain,Light Rain,70,2013-07-10 21:55:00